Location: Walnut Point State Park
(39.6958°N, 88.0345°W)
Time: 13:29:38
(UTC-05:00)

Cosmos 1833 Rocket - Visible Passes

Search period start: 20 August 2014 00:00
Search period end: 30 August 2014 00:00
Orbit: 834 x 839 km, 71.0° (Epoch: 20 August)

Date Brightness Start Highest point End Pass type
(mag) Time Alt. Az. Time Alt. Az. Time Alt. Az.
20 Aug 4.3 00:30:18 10° NNW 00:33:03 30° NNW 00:33:03 30° NNW visible
20 Aug 5.0 22:32:30 10° NNE 22:34:23 12° NE 22:34:54 11° NE visible
21 Aug 4.3 00:13:43 10° NNW 00:16:35 31° NNW 00:16:35 31° NNW visible
21 Aug 5.0 22:16:27 10° NNE 22:17:42 11° NE 22:18:28 10° NE visible
21 Aug 4.2 23:57:09 10° NNW 00:00:09 32° N 00:00:09 32° N visible
22 Aug 4.1 23:40:35 10° NNW 23:43:45 34° N 23:43:45 34° N visible
23 Aug 4.0 23:24:01 10° NNW 23:27:22 35° N 23:27:22 35° N visible
24 Aug 3.9 23:07:28 10° NNW 23:11:01 36° N 23:11:01 36° N visible
25 Aug 5.3 00:52:23 10° NW 00:52:43 11° WNW 00:52:43 11° WNW visible
25 Aug 3.8 22:50:55 10° NNW 22:54:42 37° NNE 22:54:42 37° NNE visible
26 Aug 5.2 00:35:38 10° NW 00:36:24 13° WNW 00:36:24 13° WNW visible
26 Aug 3.7 22:34:22 10° N 22:38:25 38° NNE 22:38:25 38° NNE visible
27 Aug 5.1 00:18:54 10° NW 00:20:06 15° WNW 00:20:06 15° WNW visible
27 Aug 3.6 22:17:49 10° N 22:22:09 38° NE 22:22:09 38° NE visible
28 Aug 5.0 00:02:11 10° NW 00:03:51 17° WNW 00:03:51 17° WNW visible
28 Aug 3.5 22:01:17 10° N 22:05:55 37° NE 22:05:55 37° NE visible
28 Aug 4.8 23:45:29 10° NW 23:47:37 20° WNW 23:47:37 20° WNW visible
29 Aug 3.5 21:44:45 10° N 21:49:43 35° NE 21:49:43 35° NE visible
29 Aug 4.6 23:28:48 10° NW 23:31:25 23° WNW 23:31:25 23° WNW visible
